Location: Zihuatanejo
(17.6330°N, 101.5500°W)
Time: 15:00:44
(UTC-05:00)

N. Korean satellite - Visible Passes

Search period start: 21 March 2019 00:00
Search period end: 31 March 2019 00:00
Orbit: 456 x 510 km, 97.2° (Epoch: 20 March)

Date Brightness Start Highest point End Pass type
(mag) Time Alt. Az. Time Alt. Az. Time Alt. Az.
23 Mar 9.0 07:14:24 10° NE 07:17:34 28° E 07:20:45 10° SSE visible
24 Mar 10.1 06:51:15 10° ENE 06:52:45 12° E 06:54:16 10° ESE visible
24 Mar 10.5 20:22:11 10° WSW 20:22:55 11° W 20:23:38 10° W visible
27 Mar 9.4 07:08:43 10° NE 07:11:42 24° E 07:14:42 10° SSE visible
